Regional Weather Roundup
Issued by NWS

Home | Current Version | Previous Version | Text Only | Print | Product List | Glossary Off
Versions: 1 2 3 4 5 6 7 8 9 10 11 12 13 14 15 16 17 18 19 20 21 22 23 24 25 26 27 28 29 30 31 32 33 34 35 36 37 38 39 40 41 42 43 44 45 46 47 48 49 50

000
ASUS45 KPSR 181100
RWRAZ

ARIZONA REGIONAL HOURLY WEATHER ROUNDUP
NATIONAL WEATHER SERVICE PHOENIX AZ
400 AM MST SAT APR 18 2015

NOTE: FAIR INDICATES FEW OR NO CLOUDS BELOW 12,000 FEET WITH NO
SIGNIFICANT WEATHER AND/OR OBSTRUCTIONS TO VISIBILITY.

AZZ001>003-036-181200-
NORTHWEST ARIZONA

CITY           SKY/WX    TMP DP  RH WIND       PRES   REMARKS
KINGMAN        CLEAR     40  18  41 CALM      30.00F
$$

AZZ004>008-015-016-018-181200-
NORTH CENTRAL ARIZONA

CITY           SKY/WX    TMP DP  RH WIND       PRES   REMARKS
GRAND CANYON   CLEAR     23  20  88 CALM      30.09F
WILLIAMS       PTCLDY    32  21  64 CALM      30.16S
PRESCOTT       CLEAR     39  22  50 CALM      30.06S
FLAGSTAFF      NOT AVBL
PAYSON         PTCLDY    43  23  45 CALM      30.07S
PAGE           CLEAR     48  34  58 CALM      29.99S
$$

AZZ009>014-017-181200-
NORTHEAST ARIZONA

CITY           SKY/WX    TMP DP  RH WIND       PRES   REMARKS
WINSLOW        NOT AVBL
SAINT JOHNS    PTCLDY    43  20  39 W13       30.01S
WINDOW ROCK    MOCLDY    39  25  57 CALM      30.01S
SHOW LOW       MOCLDY    39  16  38 S8        30.08R WCI  34
$$

AZZ023-181200-
GREATER PHOENIX AREA

CITY           SKY/WX    TMP DP  RH WIND       PRES   REMARKS
PHOENIX        CLEAR     62  24  23 E9        29.93R
DEER VALLEY    CLEAR     58  21  24 CALM      29.94S
SCOTTSDALE     CLEAR     59  25  27 CALM      29.96S
$$

AZZ027-028-181200-
SOUTHWEST MARICOPA COUNTY AND PINAL COUNTY

CITY           SKY/WX    TMP DP  RH WIND       PRES   REMARKS
CASA GRANDE    CLEAR     52  14  22 CALM      29.94S
$$

AZZ503-504-507>509-181200-
SOUTHEAST ARIZONA

CITY           SKY/WX    TMP DP  RH WIND       PRES   REMARKS
TUCSON         CLEAR     52  21  29 SE9       30.03R
NOGALES        CLEAR     40  21  46 E6        30.05F
SAFFORD        CLEAR     44  15  31 E6        29.99S
$$

AZZ020-021-025-026-031-181200-
SOUTHWEST ARIZONA

CITY           SKY/WX    TMP DP  RH WIND       PRES   REMARKS
YUMA           NOT AVBL
$$

CAZ031-033-041-043-047-048-061-181200-
SOUTHERN CALIFORNIA

CITY           SKY/WX    TMP DP  RH WIND       PRES   REMARKS
DOWNTOWN L.A.  CLEAR     59  43  55 CALM      29.99S
L.A. AIRPORT   CLEAR     57  47  69 CALM      30.00S
SAN DIEGO      CLEAR     61  43  51 CALM      30.02S
BURBANK        CLEAR     58  27  30 CALM      30.00S
ONTARIO        CLEAR     58  33  39 CALM      30.00F
RIVERSIDE      CLEAR     56  31  38 E5        30.01S
PALM SPRINGS   CLEAR     66  27  23 SW3       29.93F
EL CENTRO NAS  CLEAR     60  22  23 W8        29.90F
IMPERIAL       CLEAR     59  31  34 W3        29.90F
BLYTHE         CLEAR     63  25  23 S5        29.91F
$$

NVZ020-UTZ003-181200-
SOUTHERN NEVADA-UTAH

CITY           SKY/WX    TMP DP  RH WIND       PRES   REMARKS
LAS VEGAS      NOT AVBL
SALT LAKE CITY CLEAR     44  37  76 CALM      30.01S
$$

NMZ009-TXZ055-181200-
NEW MEXICO-WEST TEXAS

CITY           SKY/WX    TMP DP  RH WIND       PRES   REMARKS
ALBUQUERQUE    MOCLDY    37  25  61 SE6       29.99F WCI  32
EL PASO        PTCLDY    51  13  21 S8        29.99F
$$


........................KEY........................
SKY/WX - SKY CONDITION/WEATHER
TMP    - TEMPERATURE IN FAHRENHEIT
DP     - DEW POINT IN FAHRENHEIT
RH     - RELATIVE HUMIDITY IN PERCENT
WIND   - DIRECTION AND SPEED IN MILES PER HOUR (MPH)
VRB    - VARIABLE WIND DIRECTION
PRES   - MEAN SEA LEVEL PRESSURE IN INCHES OF MERCURY
         F - FALLING PRESSURE   R - RISING PRESSURE
         S - STEADY PRESSURE
VSB    - VISIBILITY IN MILES
HX     - HEAT INDEX IN FAHRENHEIT
WCI    - WIND CHILL INDEX IN FAHRENHEIT
TC     - TEMPERATURE IN CELSIUS WHICH IS ALSO KNOWN AS
         TEMPERATURE IN CENTIGRADE
AFB    - AIR FORCE BASE
         LUKE AFB IS LUKE AIR FORCE BASE
         DAVIS-MONTHAN IS DAVIS-MONTHAN AIR FORCE BASE
NAS    - NAVAL AIR STATION
         EL CENTRO NAS IS EL CENTRO NAVAL AIR STATION
N/A    - NOT AVAILABLE




USA.gov is the U.S. government's official web portal to all federal, state and local government web resources and services.